Location: G�ppingen
(48.7089°N, 9.6563°E)
Time: 15:01:20
(UTC+01:00)

AAUSAT CUBESAT 2 - Visible Passes

Search period start: 18 March 2019 00:00
Search period end: 28 March 2019 00:00
Orbit: 574 x 592 km, 97.5° (Epoch: 17 March)

Date Brightness Start Highest point End Pass type
(mag) Time Alt. Az. Time Alt. Az. Time Alt. Az.
21 Mar ? 19:02:58 10° SSW 19:06:52 39° W 19:10:46 10° NNW visible
22 Mar ? 19:09:07 10° SSW 19:12:54 34° W 19:16:41 10° NNW visible
23 Mar ? 19:15:17 10° SSW 19:18:56 30° W 19:22:36 10° NNW visible
24 Mar ? 19:21:30 10° SSW 19:24:59 26° W 19:28:29 10° NW visible
25 Mar ? 19:27:44 10° SW 19:31:02 23° W 19:34:20 10° NW visible
26 Mar ? 19:34:01 10° SW 19:37:05 20° W 19:40:09 10° NW visible
27 Mar ? 19:40:21 10° SW 19:43:08 17° W 19:45:55 10° NW visible
